Terminal Aerodrome Forecast
Issued by NWS

Home | Current Version | Previous Version | Graphics & Text | Print | Product List | Glossary On
Versions: 1 2 3 4 5 6 7 8 9 10 11 12 13 14 15 16 17 18 19 20 21 22 23 24 25 26 27 28 29
000
FTUS43 KGRB 170500
TAFRHI
TAF
KRHI 170520Z 1706/1806 VRB03KT P6SM BKN070
     FM171100 35005KT P6SM SCT090
     FM171700 27006KT P6SM SCT100
     FM172300 VRB03KT P6SM SKC=

USA.gov is the U.S. government's official web portal to all federal, state and local government web resources and services.